1507975201.21,1253,12.75,74562.8,16.97,-20.19,-19.37,0,*77
1507975202.44,1254,12.75,74564.5,16.97,-19.37,-18.45,0,*72
1507975203.63,1255,12.75,74560.5,16.95,-20.05,-18.83,0,*70
1507975204.85,1256,12.75,74562.5,16.95,-19.75,-18.93,0,*7F
1507975206.07,1257,12.75,74562.5,16.95,-18.65,-17.63,0,*7E
1507975207.28,1258,12.75,74562.5,16.95,-20.35,-19.75,0,*76
1507975208.49,1259,12.75,74562.0,16.95,-18.99,-18.07,0,*7E
1507975209.74,1260,12.75,74562.0,16.97,-18.01,-16.97,0,*70
1507975210.99,1261,12.75,74560.0,16.97,-18.49,-17.45,0,*73
1507975212.21,1262,12.75,74560.5,16.97,-21.13,-20.05,0,*75
1507975213.47,1263,12.75,74560.8,16.97,-19.61,-18.69,0,*7B
1507975214.74,1264,12.75,74562.0,16.97,-18.93,-17.93,0,*7A
1507975215.97,1265,12.75,74566.8,16.99,-18.11,-17.21,0,*76
1507975217.18,1266,12.75,74558.8,16.99,-19.81,-19.03,0,*73
1507975218.41,1267,12.75,74560.5,16.99,-19.31,-18.45,0,*7A
1507975219.64,1268,12.75,74560.3,16.99,-18.45,-17.41,0,*7C
1507975220.89,1269,12.75,74560.8,16.99,-18.31,-17.25,0,*7C
1507975222.11,1270,12.75,74560.3,17.05,-17.83,-16.79,0,*7E
1507975223.35,1271,12.75,74560.0,17.01,-18.11,-17.17,0,*76
1507975224.58,1272,12.75,74562.8,17.07,-19.17,-18.35,0,*7B
1507975225.83,1273,12.75,74562.0,17.05,-18.25,-17.21,0,*72
1507975227.07,1274,12.75,74562.8,17.05,-18.45,-17.41,0,*75
1507975228.31,1275,12.75,74558.8,17.07,-18.31,-17.35,0,*76
1507975229.56,1276,12.75,74562.5,17.09,-18.31,-17.25,0,*7A
1507975230.75,1277,12.75,74564.3,17.09,-19.03,-18.17,0,*75
1507975231.99,1278,12.75,74562.8,17.09,-19.37,-18.31,0,*79
1507975233.21,1279,12.75,74566.0,17.07,-18.69,-17.79,0,*7F
1507975234.46,1280,12.75,74562.0,17.09,-18.35,-17.45,0,*71
1507975235.72,1281,12.75,74560.0,17.09,-18.31,-17.21,0,*76
1507975236.94,1282,12.75,74562.0,17.09,-18.17,-17.21,0,*71
1507975238.19,1283,12.75,74560.3,17.11,-18.01,-16.97,0,*72
1507975239.43,1284,12.75,74560.3,17.11,-19.17,-18.11,0,*73
1507975240.66,1285,12.75,74566.3,17.11,-19.51,-18.45,0,*71
1507975241.89,1286,12.75,74562.3,17.11,-19.81,-18.79,0,*70
1507975243.11,1287,12.75,74564.5,17.09,-19.41,-18.45,0,*7B
1507975244.32,1288,12.75,74560.5,17.09,-18.79,-17.87,0,*7F
1507975245.55,1289,12.75,74560.5,17.09,-18.17,-17.07,0,*7E
1507975246.83,1290,12.75,74562.0,17.11,-17.55,-16.65,0,*73
1507975248.1,1291,12.75,74562.3,17.11,-18.89,-17.97,0,*70
1507975249.35,1292,12.75,74562.0,17.11,-17.69,-16.65,0,*7E
1507975250.63,1293,12.75,74560.5,17.15,-17.21,-16.13,0,*76
1507975251.86,1294,12.75,74560.5,17.15,-18.79,-17.73,0,*74
1507975253.11,1295,12.75,74560.0,17.15,-17.79,-16.59,0,*73
1507975254.34,1296,12.75,74560.5,17.15,-17.49,-16.41,0,*7A
1507975255.58,1297,12.75,74562.8,17.17,-18.93,-17.93,0,*7F
1507975256.83,1298,12.75,74560.3,17.17,-18.93,-17.79,0,*74
1507975258.05,1299,12.75,74560.3,17.19,-18.65,-17.83,0,*77
1507975259.27,1300,12.75,74566.0,17.17,-18.25,-17.03,0,*74
1507975260.46,1301,12.75,74560.8,17.17,-19.07,-18.17,0,*7E
1507975261.68,1302,12.75,74564.0,17.17,-20.19,-19.17,0,*79
1507975262.93,1303,12.75,74560.3,17.15,-20.83,-19.75,0,*7D
1507975264.18,1304,12.75,74558.0,17.15,-19.31,-18.25,0,*7D
1507975265.43,1305,12.75,74560.3,17.15,-18.21,-17.11,0,*74
1507975266.68,1306,12.75,74560.8,17.15,-18.49,-17.45,0,*78
1507975267.94,1307,12.75,74560.0,17.15,-18.79,-17.79,0,*75
1507975269.19,1308,12.75,74560.8,17.15,-18.41,-17.59,0,*73
1507975270.41,1309,12.75,74558.5,17.17,-18.25,-17.17,0,*78
1507975271.6,1310,12.75,74558.8,17.17,-18.07,-16.89,0,*76
1507975272.82,1311,12.75,74562.5,17.17,-18.21,-17.11,0,*73
1507975274.06,1312,12.75,74560.5,17.19,-17.31,-16.23,0,*70
1507975275.29,1313,12.75,74560.5,17.19,-16.97,-15.95,0,*72
1507975276.51,1314,12.75,74560.0,17.21,-17.03,-15.99,0,*7E
1507975277.75,1315,12.75,74564.3,17.27,-17.59,-16.45,0,*74
1507975279.03,1316,12.75,74564.8,17.27,-18.01,-17.03,0,*76
1507975280.28,1317,12.75,74566.0,17.23,-18.17,-17.07,0,*70
1507975281.53,1318,12.75,74564.3,17.27,-18.11,-17.03,0,*79
1507975282.81,1319,12.75,74562.8,17.27,-17.21,-16.17,0,*70
1507975284.08,1320,12.75,74560.8,17.27,-17.03,-15.85,0,*72
1507975285.33,1321,12.75,74564.0,17.29,-17.59,-16.51,0,*78
1507975286.53,1322,12.75,74562.5,17.29,-18.17,-16.97,0,*74
1507975287.78,1323,12.75,74566.0,17.29,-17.41,-16.27,0,*72
1507975289.01,1324,12.75,74564.8,17.29,-18.89,-17.83,0,*71
1507975290.26,1325,12.75,74560.3,17.31,-17.83,-16.65,0,*75
1507975291.51,1326,12.75,74566.0,17.31,-17.87,-16.65,0,*72
1507975292.74,1327,12.75,74562.0,17.33,-17.17,-16.03,0,*78
1507975293.99,1328,12.75,74564.3,17.35,-17.03,-15.95,0,*78
1507975295.28,1329,12.75,74562.0,17.35,-17.45,-16.17,0,*72
1507975296.5,1330,12.75,74564.5,17.37,-16.69,-15.63,0,*77
1507975297.73,1331,12.75,74564.3,17.37,-18.65,-17.41,0,*76
1507975298.95,1332,12.75,74564.5,17.37,-17.55,-16.41,0,*78
1507975300.15,1333,12.75,74566.5,17.37,-19.71,-18.65,0,*79
1507975301.4,1334,12.75,74566.3,17.35,-17.79,-16.59,0,*7B
1507975302.62,1335,12.75,74564.3,17.37,-18.45,-17.25,0,*72
1507975303.87,1336,12.75,74566.5,17.35,-17.59,-16.55,0,*77
1507975305.1,1337,12.75,74564.8,17.37,-17.25,-16.37,0,*7B
1507975306.3,1338,12.75,74564.8,17.37,-19.07,-18.07,0,*77
1507975307.56,1339,12.75,74564.8,17.39,-20.15,-19.23,0,*76
1507975308.79,1340,12.75,74562.5,17.37,-18.21,-17.11,0,*75
1507975310.01,1341,12.75,74560.3,17.37,-18.49,-17.59,0,*76
1507975311.29,1342,12.75,74562.5,17.35,-19.57,-18.55,0,*7A
1507975312.52,1343,12.75,74566.5,17.37,-19.37,-18.31,0,*7D
1507975313.78,1344,12.75,74564.8,17.33,-19.31,-18.31,0,*78
1507975315.0,1345,12.75,74564.0,17.31,-19.99,-19.07,0,*7D
1507975316.23,1346,12.75,74564.5,17.31,-20.59,-19.37,0,*7B
1507975317.48,1347,12.69,74560.3,17.31,-19.41,-18.49,0,*71
1507975318.74,1348,12.75,74566.0,17.31,-17.97,-16.83,0,*73
1507975319.96,1349,12.69,74562.5,17.29,-18.89,-17.87,0,*7E
1507975321.21,1350,12.75,74564.0,17.31,-18.01,-16.97,0,*7F
1507975322.48,1351,12.69,74562.5,17.31,-19.85,-18.93,0,*79
1507975323.76,1352,12.75,74564.3,17.31,-20.79,-19.81,0,*71
1507975325.02,1353,12.75,74566.5,17.27,-20.53,-18.93,0,*7D
1507975326.25,1354,12.75,74566.3,17.23,-18.73,-17.83,0,*79
1507975327.5,1355,12.75,74564.3,17.23,-19.47,-18.55,0,*7A
1507975328.72,1356,12.75,74564.3,17.23,-19.17,-18.25,0,*7B
1507975329.97,1357,12.69,74562.8,17.23,-18.73,-17.63,0,*74
1507975331.22,1358,12.75,74566.5,17.23,-19.23,-18.45,0,*74
1507975332.42,1359,12.75,74566.5,17.21,-19.37,-18.45,0,*72
1507975333.63,1360,12.75,74570.0,17.21,-19.07,-18.11,0,*7A
1507975334.83,1361,12.75,74568.5,17.21,-19.75,-18.73,0,*7A
1507975336.08,1362,12.75,74568.3,17.21,-18.31,-17.41,0,*76
1507975337.32,1363,12.69,74562.8,17.21,-19.81,-18.89,0,*76
1507975338.51,1364,12.75,74562.3,17.21,-18.11,-16.93,0,*7C
1507975339.76,1365,12.75,74564.8,17.19,-17.59,-16.55,0,*7F
1507975341.03,1366,12.69,74562.0,17.23,-18.59,-17.55,0,*7B
1507975342.26,1367,12.75,74568.5,17.23,-18.83,-17.83,0,*76
1507975343.5,1368,12.75,74564.0,17.23,-18.55,-17.49,0,*74
1507975344.73,1369,12.75,74566.3,17.21,-18.99,-17.97,0,*74
1507975345.96,1370,12.69,74562.8,17.21,-20.99,-20.05,0,*78
1507975347.17,1371,12.75,74564.3,17.21,-19.17,-18.11,0,*7B
1507975348.36,1372,12.75,74562.8,17.21,-19.99,-19.03,0,*7C
1507975349.61,1373,12.75,74562.3,17.19,-19.71,-18.59,0,*7E
1507975350.85,1374,12.75,74564.5,17.19,-17.59,-16.55,0,*7F
1507975352.1,1375,12.75,74566.8,17.19,-17.31,-16.23,0,*71
1507975353.34,1376,12.75,74566.0,17.21,-17.79,-16.65,0,*77
1507975354.57,1377,12.75,74562.3,17.21,-19.31,-18.11,0,*79
1507975355.79,1378,12.69,74560.5,17.21,-19.03,-17.93,0,*72
1507975357.04,1379,12.69,74560.0,17.23,-17.93,-16.79,0,*73
1507975358.3,1380,12.75,74564.5,17.21,-17.21,-16.13,0,*72
1507975359.55,1381,12.75,74562.5,17.23,-17.07,-16.03,0,*74
1507975360.77,1382,12.69,74562.5,17.27,-16.75,-15.71,0,*71
1507975362.05,1383,12.75,74566.0,17.27,-18.93,-17.79,0,*7C
1507975363.27,1384,12.75,74560.5,17.29,-17.45,-16.37,0,*7A
1507975364.48,1385,12.75,74560.0,17.29,-18.07,-16.83,0,*7D
1507975365.73,1386,12.75,74564.0,17.29,-18.35,-17.41,0,*70
1507975366.98,1387,12.75,74564.5,17.27,-19.47,-18.55,0,*71
1507975368.17,1388,12.75,74566.8,17.29,-18.73,-17.69,0,*76
1507975369.41,1389,12.75,74566.3,17.29,-18.93,-17.87,0,*79
1507975370.67,1390,12.75,74560.5,17.27,-20.35,-19.61,0,*7E
1507975371.93,1391,12.75,74558.8,17.23,-21.23,-20.39,0,*7A
1507975373.15,1392,12.75,74556.8,17.21,-19.81,-18.73,0,*7D
1507975374.37,1393,12.75,74558.5,17.23,-18.07,-16.93,0,*71
1507975375.65,1394,12.75,74562.3,17.23,-18.31,-17.41,0,*7D
1507975376.9,1395,12.69,74556.5,17.23,-19.07,-17.97,0,*73
1507975378.15,1396,12.69,74558.5,17.23,-18.83,-17.79,0,*7D
1507975379.38,1397,12.75,74560.8,17.23,-17.69,-16.59,0,*74
1507975380.6,1398,12.69,74558.3,17.27,-16.97,-15.95,0,*7C
1507975381.84,1399,12.75,74560.8,17.23,-16.37,-15.29,0,*74
1507975383.06,1400,12.69,74560.0,17.29,-16.65,-15.67,0,*74
1507975384.31,1401,12.69,74554.5,17.29,-17.03,-15.89,0,*74
1507975385.51,1402,12.69,74562.0,17.33,-19.37,-18.69,0,*76
1507975386.77,1403,12.75,74564.5,17.31,-18.93,-17.87,0,*75
1507975387.99,1404,12.69,74558.8,17.31,-18.17,-17.31,0,*73
1507975389.24,1405,12.75,74558.8,17.31,-20.15,-19.37,0,*73
1507975390.46,1406,12.69,74558.5,17.29,-20.63,-19.65,0,*7F
1507975391.68,1407,12.69,74562.8,17.27,-19.75,-18.99,0,*7F
1507975392.9,1408,12.75,74566.5,17.23,-19.75,-18.69,0,*7B
1507975394.11,1409,12.69,74562.5,17.21,-18.69,-17.69,0,*7B
1507975395.35,1410,12.69,74560.8,17.27,-17.73,-16.69,0,*70
1507975396.6,1411,12.69,74554.8,17.29,-19.57,-18.89,0,*77
1507975397.83,1412,12.75,74554.5,17.23,-19.81,-18.83,0,*7F
1507975399.09,1413,12.69,74562.5,17.23,-20.43,-19.61,0,*77
1507975400.32,1414,12.75,74570.8,17.21,-18.17,-17.07,0,*76
1507975401.53,1415,12.75,74568.3,17.21,-19.17,-18.11,0,*7E
1507975402.74,1416,12.75,74566.0,17.21,-19.17,-18.11,0,*7D
1507975403.99,1417,12.69,74560.8,17.21,-19.31,-18.55,0,*78
1507975405.23,1418,12.69,74566.5,17.19,-17.69,-16.65,0,*72
1507975406.45,1419,12.69,74566.0,17.19,-19.07,-18.21,0,*7B
1507975407.67,1420,12.69,74564.0,17.19,-17.87,-16.93,0,*70
1507975408.92,1421,12.69,74566.5,17.19,-17.41,-16.37,0,*75
1507975410.15,1422,12.69,74566.5,17.21,-17.49,-16.51,0,*75
1507975411.4,1423,12.75,74568.8,17.21,-18.59,-17.97,0,*71
1507975412.64,1424,12.69,74564.0,17.23,-17.49,-16.51,0,*71
1507975413.86,1425,12.69,74566.3,17.27,-15.99,-15.07,0,*7B
1507975415.08,1426,12.69,74566.5,17.29,-15.67,-14.79,0,*7F
1507975416.32,1427,12.75,74566.0,17.29,-19.27,-18.49,0,*79
1507975417.57,1428,12.69,74560.0,17.29,-18.01,-17.03,0,*72
1507975418.82,1429,12.75,74564.8,17.29,-17.17,-16.23,0,*78
1507975420.1,1430,12.75,74566.5,17.31,-17.17,-16.13,0,*7A
1507975421.36,1431,12.69,74564.0,17.31,-17.55,-16.83,0,*74
1507975422.56,1432,12.75,74568.0,17.33,-18.17,-17.35,0,*70
1507975423.79,1433,12.75,74568.0,17.31,-16.83,-15.95,0,*78
1507975425.07,1434,12.69,74560.5,17.31,-17.97,-17.17,0,*73
1507975426.29,1435,12.69,74562.8,17.35,-16.89,-15.99,0,*7C
1507975427.53,1436,12.69,74564.8,17.35,-17.79,-16.93,0,*78
1507975428.78,1437,12.69,74562.0,17.35,-16.93,-16.17,0,*70
1507975430.03,1438,12.69,74564.3,17.35,-17.79,-16.83,0,*77
1507975431.29,1439,12.69,74562.3,17.37,-17.03,-16.09,0,*7B
1507975432.54,1440,12.69,74562.3,17.39,-16.51,-15.75,0,*75
1507975433.81,1441,12.69,74560.8,17.39,-16.13,-15.35,0,*76
1507975435.09,1442,12.69,74562.3,17.39,-18.35,-17.59,0,*77
1507975436.3,1443,12.75,74564.5,17.41,-16.75,-15.95,0,*71
1507975437.55,1444,12.69,74562.3,17.41,-17.07,-16.31,0,*7F
1507975438.77,1445,12.69,74562.0,17.41,-17.69,-17.11,0,*75
1507975439.97,1446,12.75,74562.0,17.41,-19.07,-18.41,0,*7A
1507975441.19,1447,12.69,74560.0,17.39,-17.83,-16.83,0,*76
1507975442.47,1448,12.69,74560.3,17.39,-20.49,-19.85,0,*72
1507975443.72,1449,12.69,74560.3,17.39,-17.87,-17.03,0,*75
1507975444.95,1450,12.75,74562.3,17.37,-16.55,-15.81,0,*75
1507975446.18,1451,12.69,74560.3,17.41,-15.75,-14.97,0,*72
1507975447.41,1452,12.75,74566.0,17.41,-15.75,-14.97,0,*71
1507975448.64,1453,12.69,74560.8,17.43,-16.37,-15.75,0,*7A
1507975449.88,1454,12.69,74564.8,17.43,-18.11,-17.55,0,*77
1507975451.13,1455,12.69,74562.8,17.43,-16.93,-16.17,0,*75
1507975452.37,1456,12.69,74564.3,17.43,-19.17,-18.73,0,*79
1507975453.57,1457,12.69,74564.3,17.45,-17.35,-16.75,0,*78
1507975454.78,1458,12.69,74564.5,17.41,-17.49,-16.75,0,*78
1507975456.0,1459,12.69,74564.3,17.41,-16.23,-15.63,0,*70
1507975457.26,1460,12.69,74564.0,17.45,-16.65,-15.89,0,*78
1507975458.49,1461,12.69,74566.3,17.43,-17.87,-17.35,0,*77
1507975459.72,1462,12.75,74566.5,17.45,-17.03,-16.41,0,*7C
1507975460.97,1463,12.69,74566.8,17.43,-17.41,-16.79,0,*76
1507975462.24,1464,12.69,74560.3,17.43,-15.85,-15.21,0,*75
1507975463.47,1465,12.69,74564.8,17.45,-19.95,-19.27,0,*75
1507975464.72,1466,12.69,74560.0,17.43,-17.63,-16.97,0,*73
1507975465.96,1467,12.69,74562.3,17.45,-17.11,-16.65,0,*7C
1507975467.22,1468,12.69,74558.0,17.43,-17.41,-16.79,0,*7D
1507975468.47,1469,12.69,74562.3,17.43,-17.79,-17.35,0,*7E
1507975469.72,1470,12.69,74562.0,17.45,-17.79,-17.07,0,*71
1507975470.93,1471,12.69,74564.8,17.45,-17.83,-17.35,0,*74
1507975472.14,1472,12.69,74560.8,17.45,-18.25,-17.83,0,*79
1507975473.39,1473,12.69,74564.8,17.45,-17.21,-16.69,0,*76
1507975474.65,1474,12.69,74566.0,17.43,-17.79,-17.25,0,*73
1507975475.89,1475,12.69,74562.0,17.43,-17.83,-17.35,0,*76
1507975477.14,1476,12.69,74566.5,17.43,-17.21,-16.59,0,*76
1507975478.39,1477,12.69,74564.3,17.45,-17.17,-16.69,0,*77
1507975479.62,1478,12.69,74560.8,17.43,-20.73,-20.43,0,*75
1507975480.85,1479,12.69,74558.8,17.39,-21.09,-20.63,0,*77
1507975482.06,1480,12.69,74564.8,17.37,-20.05,-19.61,0,*7A
1507975483.32,1481,12.69,74560.3,17.35,-18.69,-18.35,0,*78
1507975484.57,1482,12.69,74560.0,17.33,-18.59,-18.31,0,*7A
1507975485.81,1483,12.69,74560.5,17.31,-18.89,-18.45,0,*77
1507975487.07,1484,12.69,74566.0,17.31,-18.45,-17.97,0,*70
1507975488.26,1485,12.69,74564.8,17.33,-17.35,-16.89,0,*75
1507975489.5,1486,12.69,74562.8,17.31,-20.59,-20.29,0,*75
1507975490.71,1487,12.69,74560.5,17.29,-20.29,-19.85,0,*76
1507975491.95,1488,12.69,74562.0,17.27,-20.25,-19.85,0,*7B
1507975493.2,1489,12.69,74558.5,17.23,-19.31,-18.99,0,*7D
1507975494.45,1490,12.69,74560.8,17.19,-21.53,-21.13,0,*7B
1507975495.73,1491,12.69,74560.3,17.19,-18.35,-18.01,0,*79
1507975496.95,1492,12.69,74562.8,17.17,-19.31,-19.13,0,*73
1507975498.14,1493,12.69,74564.0,17.17,-18.49,-18.21,0,*7C
1507975499.36,1494,12.69,74566.0,17.17,-19.85,-19.17,0,*7E
1507975500.59,1495,12.69,74564.8,17.15,-17.35,-16.83,0,*7A
1507975501.87,1496,12.69,74564.5,17.15,-17.45,-17.11,0,*74
1507975503.13,1497,12.69,74560.5,17.15,-17.11,-16.59,0,*79
1507975504.41,1498,12.69,74564.0,17.15,-17.93,-17.59,0,*7D
1507975505.67,1499,12.69,74566.3,17.15,-17.17,-16.59,0,*71
1507975506.92,1500,12.69,74566.3,17.15,-17.17,-16.83,0,*77
1507975508.15,1501,12.69,74564.5,17.17,-17.35,-17.03,0,*7D
1507975509.39,1502,12.69,74564.8,17.19,-16.93,-16.69,0,*70
1507975510.59,1503,12.69,74566.0,17.17,-19.07,-18.65,0,*7F
1507975511.81,1504,12.69,74564.3,17.17,-17.17,-16.89,0,*7B
1507975513.05,1505,12.69,74558.0,17.19,-17.69,-17.41,0,*78
1507975514.31,1506,12.69,74562.3,17.19,-16.41,-16.17,0,*72
1507975515.56,1507,12.69,74558.8,17.19,-16.37,-16.09,0,*7D
1507975516.82,1508,12.69,74562.0,17.19,-16.37,-16.17,0,*7D
1507975518.07,1509,12.69,74562.0,17.19,-16.09,-15.75,0,*76
1507975519.32,1510,12.69,74556.5,17.23,-16.17,-15.99,0,*7A
1507975520.57,1511,12.69,74570.3,17.23,-16.59,-16.31,0,*70
1507975521.79,1512,12.69,74562.5,17.29,-17.11,-16.93,0,*7C
1507975523.05,1513,12.69,74558.8,17.23,-19.81,-19.81,0,*7C
1507975524.27,1514,12.69,74558.8,17.21,-21.33,-21.39,0,*73
1507975525.49,1515,12.69,74562.8,17.17,-19.85,-19.71,0,*76
1507975526.71,1516,12.69,74564.3,17.13,-18.73,-18.55,0,*7E
1507975527.9,1517,12.69,74566.8,17.13,-18.25,-18.25,0,*7B
1507975529.15,1518,12.69,74564.8,17.13,-19.23,-19.23,0,*74
1507975530.42,1519,12.69,74564.0,17.11,-18.89,-18.89,0,*77
1507975531.68,1520,12.69,74564.8,17.09,-19.27,-19.27,0,*74
1507975532.9,1521,12.69,74558.8,17.07,-20.79,-20.93,0,*7F
1507975534.12,1522,12.69,74556.8,17.07,-19.71,-19.85,0,*73
1507975535.34,1523,12.69,74562.0,17.05,-19.51,-19.47,0,*7C
1507975536.55,1524,12.69,74562.8,16.99,-19.07,-19.37,0,*7B
1507975537.77,1525,12.69,74560.5,16.99,-17.59,-17.69,0,*7A
1507975539.0,1526,12.69,74560.3,16.99,-17.35,-17.25,0,*7B
1507975540.25,1527,12.69,74560.5,16.99,-17.25,-17.25,0,*7B
1507975541.45,1528,12.69,74554.5,16.99,-17.73,-17.73,0,*74
1507975542.67,1529,12.69,74552.8,16.99,-18.93,-19.07,0,*79
1507975543.87,1530,12.69,74564.5,16.99,-18.49,-18.65,0,*73
1507975545.09,1531,12.69,74560.5,16.99,-19.41,-19.71,0,*7F
1507975546.35,1532,12.69,74558.0,16.95,-20.53,-20.53,0,*73
1507975547.54,1533,12.69,74562.3,16.95,-18.69,-18.79,0,*73
1507975548.82,1534,12.69,74556.3,16.93,-17.45,-17.45,0,*73
1507975550.1,1535,12.69,74558.5,16.93,-17.17,-17.11,0,*74
1507975551.35,1536,12.69,74554.8,16.93,-17.93,-18.11,0,*74
1507975552.6,1537,12.69,74556.8,16.93,-17.35,-17.45,0,*77
1507975553.84,1538,12.69,74558.8,16.93,-17.55,-17.49,0,*72
1507975555.11,1539,12.69,74556.8,16.93,-17.93,-18.35,0,*7D
1507975556.39,1540,12.69,74554.5,16.93,-20.99,-21.27,0,*74
1507975557.64,1541,12.69,74558.5,16.89,-17.79,-18.07,0,*7C
1507975558.89,1542,12.69,74556.5,16.89,-18.65,-18.93,0,*70
1507975560.14,1543,12.69,74558.0,16.89,-17.11,-17.31,0,*7A
1507975561.33,1544,12.69,74556.3,16.87,-18.45,-18.83,0,*7B
1507975562.53,1545,12.69,74556.8,16.87,-18.17,-18.49,0,*7B
1507975563.81,1546,12.69,74562.5,16.89,-17.17,-17.55,0,*7B
1507975565.04,1547,12.69,74558.0,16.87,-18.79,-19.23,0,*7C
1507975566.24,1548,12.69,74558.5,16.87,-18.07,-18.49,0,*77
1507975567.47,1549,12.69,74556.8,16.87,-18.07,-18.35,0,*7D
1507975568.7,1550,12.69,74562.3,16.87,-17.87,-18.35,0,*72
1507975569.94,1551,12.69,74560.3,16.85,-17.07,-17.31,0,*72
1507975571.19,1552,12.69,74560.3,16.85,-17.97,-18.25,0,*72
1507975572.41,1553,12.69,74556.0,16.85,-18.41,-19.17,0,*77
1507975573.61,1554,12.69,74556.3,16.83,-20.69,-21.17,0,*7C
1507975574.83,1555,12.69,74558.8,16.81,-17.87,-18.25,0,*70
1507975576.11,1556,12.69,74556.8,16.77,-17.11,-17.45,0,*7C
1507975577.38,1557,12.69,74560.0,16.77,-17.93,-18.35,0,*7F
1507975578.63,1558,12.69,74566.5,16.81,-16.17,-16.37,0,*78
1507975579.88,1559,12.69,74556.8,16.81,-16.97,-17.41,0,*71
1507975581.14,1560,12.69,74558.5,16.83,-17.03,-17.45,0,*71
1507975582.39,1561,12.69,74556.5,16.83,-17.21,-17.63,0,*74
1507975583.62,1562,12.69,74556.3,16.83,-17.35,-17.93,0,*7D
1507975584.81,1563,12.69,74560.8,16.83,-16.03,-16.45,0,*72
1507975586.04,1564,12.69,74560.3,16.83,-15.89,-16.41,0,*70
1507975587.29,1565,12.69,74562.0,16.85,-16.89,-17.45,0,*71
1507975588.51,1566,12.69,74562.5,16.85,-16.41,-16.93,0,*7C
1507975589.74,1567,12.69,74562.3,16.85,-16.89,-17.35,0,*74
1507975590.99,1568,12.69,74564.5,16.85,-16.13,-16.59,0,*73
1507975592.24,1569,12.69,74562.3,16.85,-15.85,-16.41,0,*77
1507975593.49,1570,12.69,74562.8,16.87,-16.51,-17.03,0,*70
1507975594.72,1571,12.69,74564.0,16.87,-16.75,-17.41,0,*71
1507975595.92,1572,12.69,74564.5,16.87,-17.73,-18.49,0,*72
1507975597.14,1573,12.69,74562.0,16.87,-16.27,-16.89,0,*71
1507975598.39,1574,12.69,74564.5,16.87,-17.63,-18.35,0,*7E
1507975599.65,1575,12.69,74562.3,16.87,-17.45,-18.35,0,*7B
1507975600.84,1576,12.69,74562.0,16.83,-20.09,-21.13,0,*7E
1507975602.07,1577,12.69,74560.0,16.83,-18.89,-19.75,0,*77
1507975603.3,1578,12.69,74560.8,16.77,-17.87,-18.73,0,*75
1507975604.55,1579,12.69,74560.8,16.77,-18.73,-19.65,0,*76
1507975605.79,1580,12.69,74560.5,16.75,-17.63,-18.41,0,*7B
1507975607.01,1581,12.69,74560.0,16.73,-17.03,-17.73,0,*74
1507975608.24,1582,12.69,74558.5,16.75,-15.95,-16.59,0,*75
1507975609.49,1583,12.69,74562.0,16.75,-15.85,-16.89,0,*78
1507975610.76,1584,12.69,74560.3,16.75,-16.31,-17.03,0,*70
1507975612.01,1585,12.69,74562.5,16.77,-15.95,-16.65,0,*7F
1507975613.28,1586,12.69,74562.0,16.77,-15.89,-16.65,0,*71
1507975614.53,1587,12.69,74562.3,16.81,-17.97,-19.03,0,*7B
1507975615.77,1588,12.69,74556.5,16.77,-17.79,-18.79,0,*71
1507975617.02,1589,12.69,74558.3,16.77,-16.41,-17.17,0,*7D
1507975618.3,1590,12.69,74556.8,16.77,-16.09,-17.11,0,*7F
1507975619.58,1591,12.69,74562.0,16.77,-17.11,-18.01,0,*78
1507975620.82,1592,12.69,74558.8,16.81,-17.11,-18.25,0,*74
1507975622.02,1593,12.69,74562.5,16.73,-16.59,-17.35,0,*7B
1507975623.28,1594,12.69,74564.5,16.75,-16.31,-17.35,0,*74
1507975624.55,1595,12.69,74562.0,16.77,-16.69,-17.59,0,*70
1507975625.83,1596,12.69,74554.3,16.77,-16.27,-17.11,0,*75
1507975627.07,1597,12.69,74558.5,16.77,-19.13,-20.63,0,*7D
1507975628.33,1598,12.69,74554.8,16.75,-19.13,-20.35,0,*73
1507975629.57,1599,12.69,74556.8,16.71,-18.11,-19.23,0,*78
1507975630.79,1600,12.69,74556.0,16.69,-17.11,-18.17,0,*7B
1507975631.98,1601,12.69,74556.0,16.69,-16.97,-18.17,0,*75
1507975633.22,1602,12.69,74562.0,16.67,-16.93,-17.93,0,*7F
1507975634.45,1603,12.69,74564.8,16.69,-16.51,-17.69,0,*7B
1507975635.7,1604,12.69,74558.5,16.71,-18.01,-19.17,0,*79
1507975636.9,1605,12.69,74562.0,16.69,-17.49,-18.45,0,*74
1507975638.11,1606,12.69,74558.0,16.65,-16.27,-17.31,0,*7E
1507975639.34,1607,12.69,74560.0,16.65,-16.83,-17.79,0,*7D
1507975640.59,1608,12.69,74566.5,16.67,-16.03,-17.11,0,*76
1507975641.84,1609,12.69,74564.8,16.65,-16.23,-17.21,0,*74
1507975643.06,1610,12.69,74562.3,16.67,-17.83,-19.07,0,*7F
1507975644.29,1611,12.69,74554.0,16.65,-17.25,-18.45,0,*77
1507975645.54,1612,12.69,74566.5,16.65,-19.61,-20.83,0,*7B
1507975646.76,1613,12.69,74568.8,16.65,-18.07,-19.31,0,*78
1507975647.99,1614,12.69,74562.8,16.61,-16.51,-17.69,0,*75
1507975649.18,1615,12.69,74562.5,16.61,-16.93,-18.25,0,*7D
1507975650.38,1616,12.69,74556.8,16.61,-16.59,-17.83,0,*7B
1507975651.63,1617,12.69,74558.8,16.61,-16.65,-17.97,0,*70
1507975652.88,1618,12.69,74556.8,16.63,-16.65,-18.17,0,*7A
1507975654.1,1619,12.69,74562.8,16.61,-16.03,-17.21,0,*73
1507975655.35,1620,12.69,74560.5,16.63,-16.03,-17.25,0,*7F
1507975656.59,1621,12.69,74560.0,16.63,-15.15,-16.31,0,*7E
1507975657.84,1622,12.69,74562.8,16.61,-15.89,-17.63,0,*7C
1507975659.09,1623,12.69,74562.3,16.63,-17.93,-19.47,0,*7E
1507975660.31,1624,12.69,74562.8,16.61,-16.37,-17.93,0,*73
1507975661.53,1625,12.69,74562.3,16.61,-16.89,-18.01,0,*73
1507975662.72,1626,12.69,74562.0,16.61,-15.71,-16.93,0,*71
1507975663.92,1627,12.69,74562.3,16.61,-16.03,-17.49,0,*70
1507975665.14,1628,12.69,74562.5,16.63,-15.99,-17.35,0,*76
1507975666.38,1629,12.69,74560.5,16.61,-16.51,-17.93,0,*7E
1507975667.61,1630,12.69,74558.8,16.63,-18.17,-19.75,0,*7E
1507975668.81,1631,12.69,74560.0,16.61,-16.45,-17.83,0,*73
1507975670.06,1632,12.69,74556.3,16.61,-17.41,-19.23,0,*71
1507975671.29,1633,12.69,74560.0,16.55,-16.45,-17.87,0,*72
1507975672.51,1634,12.69,74560.5,16.59,-16.97,-18.49,0,*7B
1507975673.77,1635,12.69,74562.8,16.55,-18.65,-20.19,0,*7B
1507975674.99,1636,12.69,74560.8,16.55,-17.49,-19.13,0,*79
1507975676.28,1637,12.69,74558.5,16.51,-16.13,-17.55,0,*7E
1507975677.49,1638,12.69,74562.8,16.53,-16.41,-17.87,0,*7B
1507975678.76,1639,12.69,74560.5,16.55,-16.23,-17.79,0,*79
1507975680.01,1640,12.69,74564.0,16.53,-16.27,-17.79,0,*75
1507975681.22,1641,12.69,74564.8,16.53,-15.99,-17.45,0,*7D
1507975682.42,1642,12.69,74556.8,16.53,-17.49,-19.17,0,*78
1507975683.71,1643,12.69,74560.8,16.51,-15.89,-17.41,0,*78
1507975684.98,1644,12.69,74558.8,16.51,-16.31,-17.93,0,*70
1507975686.21,1645,12.69,74560.3,16.51,-16.93,-18.45,0,*7D
1507975687.46,1646,12.69,74562.5,16.51,-17.55,-19.13,0,*77
1507975688.67,1647,12.69,74560.5,16.49,-16.89,-18.69,0,*73
1507975689.88,1648,12.69,74560.0,16.49,-18.45,-20.39,0,*7C
1507975691.14,1649,12.69,74560.8,16.49,-16.65,-18.31,0,*72
1507975692.36,1650,12.69,74564.3,16.47,-17.31,-19.17,0,*71
1507975693.61,1651,12.69,74564.5,16.47,-17.21,-19.03,0,*74
1507975694.85,1652,12.69,74560.8,16.45,-17.45,-19.13,0,*76
1507975696.1,1653,12.69,74566.5,16.45,-17.11,-18.93,0,*7F
1507975697.3,1654,12.69,74562.0,16.45,-16.83,-18.49,0,*75
1507975698.51,1655,12.69,74564.0,16.43,-18.25,-19.91,0,*74
1507975699.71,1656,12.69,74560.0,16.39,-19.03,-20.73,0,*79
1507975700.94,1657,12.69,74562.3,16.39,-18.35,-19.99,0,*72
1507975702.2,1658,12.69,74560.8,16.39,-16.65,-18.31,0,*75
1507975703.48,1659,12.69,74562.3,16.37,-17.45,-19.31,0,*78